COSMO-SKYMED 1 (31598 NORAD) Tracking and Keplerian Element Data

This shows tracking and keplerian element data for the satellite.

Feedback or suggestion? Click here.




ElementValue
Catalog31598
NameCOSMO-SKYMED 1
Epoch Orbit62282
Epoch Day345.82365416
Epoch Year2018
RAAN166.8776
Inclination97.8844
Eccentricity0.0001487
Argument of Perigee82.3437
Mean Anonmoly277.793
Mean Motion14.82153908
Decay Rate-9.28E-06
L11 31598U 07023A 18345.82365416 -.00000928 00000-0 -11006-3 0 9996
L22 31598 97.8844 166.8776 0001487 82.3437 277.7930 14.82153908622822

Live tracking and technical data element details for COSMO-SKYMED 1 (NORAD 31598). COSMO-SKYMED 1 can be tracked NOW for your location showing map with azimuth and elevation plus other details from your city location.

Track the satellite on the map from your city or location and see movement details for azimuth, elevation, latitude, longitude, range, height, and movement on the map or in text.







IsCatalogInMostPopularTable: catalog: 31598, numindb: 45
Update: records affected: 1



GetName: 31598 COSMO-SKYMED 1

Hit Count: updated at: Thu, 13 Dec 2018 03:29:36 GMT